Location: Moscow
(55.7500°N, 37.5830°E)
Time: 17:54:29
(UTC+03:00)

Vanguard 1 - Pass Details

Date: 08 December 2021
Orbit: 652 x 3830 km, 34.2° (Epoch: 22 January)

Event Time Altitude Azimuth Distance (km) Brightness Sun altitude
Rises 00:18:27 0° 232° (SW) 7,162 - -56.9°
Reaches altitude 10° 00:23:26 10° 225° (SW) 6,450 - -57.0°
Maximum altitude 00:42:25 38° 168° (SSE) 4,956 - -56.7°
Exits shadow 00:56:46 19° 118° (ESE) 5,782 13.8 -56.3°
Drops below altitude 10° 01:00:53 10° 110° (ESE) 6,292 14.1 -56.2°
Sets 01:05:37 0° 103° (ESE) 6,980 14.5 -56.0°
